Zurück zum Katalog

OPS 8314 (2)

AktivMilitärPO
NORAD 6822·PAYLOAD·🇺🇸 United States

Gestartet Oct 10, 1972 von Vandenberg Space Force Base

Loading…

Nächste Überflüge (nächste 24 Stunden)

TLE

AktuellSource: Space-Track

Epoche: Sep 14, 2026, 11:08 UTC

1 06822U 72079C   26257.46441356 -.00000024  00000-0 -67695-4 0  9993
2 06822  95.6362  69.6570 0028542 255.0973 118.5092 12.55632515470918

Verfolge OPS 8314 (2) in Echtzeit mit AllMySat

Download on the App Store